TimeEST,TemperatureF,Dew PointF,Humidity,Sea Level PressureIn,VisibilityMPH,Wind Direction,Wind SpeedMPH,Gust SpeedMPH,PrecipitationIn,Events,Conditions,WindDirDegrees,DateUTC
12:58 AM,32.5,27.0,80,30.14,10.0,NNW,2.3,-,N/A,,Clear,330,2013-02-21 05:58:00
1:58 AM,31.8,27.3,83,30.13,10.0,Calm,Calm,-,N/A,,Clear,0,2013-02-21 06:58:00
2:58 AM,30.6,27.0,86,30.12,10.0,South,2.3,-,N/A,,Clear,170,2013-02-21 07:58:00
3:58 AM,30.6,27.1,87,30.12,10.0,ESE,2.3,-,N/A,,Clear,110,2013-02-21 08:58:00
4:58 AM,29.7,26.4,88,30.12,10.0,SE,2.3,-,N/A,,Clear,140,2013-02-21 09:58:00
5:58 AM,28.8,26.4,91,30.15,10.0,ESE,2.3,-,N/A,,Clear,120,2013-02-21 10:58:00
6:58 AM,29.5,27.3,92,30.17,10.0,Calm,Calm,-,N/A,,Clear,70,2013-02-21 11:58:00
7:58 AM,29.8,28.0,93,30.17,10.0,Calm,Calm,-,N/A,,Clear,0,2013-02-21 12:58:00
8:58 AM,36.7,32.2,84,30.19,10.0,NW,1.2,-,N/A,,Clear,320,2013-02-21 13:58:00
9:58 AM,46.0,26.2,46,30.18,10.0,Variable,2.3,-,N/A,,Clear,0,2013-02-21 14:58:00
10:58 AM,55.6,24.8,30,30.17,10.0,Variable,1.2,-,N/A,,Clear,0,2013-02-21 15:58:00
11:58 AM,61.5,23.9,24,30.14,10.0,Variable,2.3,-,N/A,,Clear,0,2013-02-21 16:58:00
12:58 PM,65.1,25.3,22,30.10,10.0,SE,8.1,-,N/A,,Clear,140,2013-02-21 17:58:00
1:58 PM,67.5,25.0,20,30.06,10.0,SE,6.9,-,N/A,,Clear,130,2013-02-21 18:58:00
2:58 PM,70.3,24.8,18,30.01,10.0,ESE,8.1,-,N/A,,Clear,120,2013-02-21 19:58:00
3:58 PM,70.3,25.0,18,29.99,10.0,SSE,9.2,-,N/A,,Partly Cloudy,150,2013-02-21 20:58:00
4:58 PM,68.5,26.1,20,29.97,10.0,SSE,11.5,-,N/A,,Overcast,150,2013-02-21 21:58:00
5:18 PM,68.0,28.4,23,29.96,10.0,SE,12.7,-,N/A,,Mostly Cloudy,140,2013-02-21 22:18:00
5:58 PM,66.4,28.9,25,29.99,10.0,SE,8.1,-,N/A,,Overcast,130,2013-02-21 22:58:00
6:58 PM,64.4,30.4,28,30.01,10.0,SE,5.8,-,N/A,,Overcast,130,2013-02-21 23:58:00
7:43 PM,62.6,32.0,32,29.99,10.0,East,6.9,-,N/A,,Mostly Cloudy,100,2013-02-22 00:43:00
7:58 PM,60.4,31.8,34,30.00,10.0,SE,4.6,-,N/A,,Mostly Cloudy,140,2013-02-22 00:58:00
8:03 PM,59.0,32.0,36,30.00,10.0,SE,4.6,-,N/A,,Mostly Cloudy,140,2013-02-22 01:03:00
8:23 PM,59.0,32.0,36,29.99,10.0,SE,5.8,-,N/A,,Mostly Cloudy,130,2013-02-22 01:23:00
8:58 PM,57.6,35.2,43,30.01,10.0,SE,6.9,-,N/A,,Scattered Clouds,140,2013-02-22 01:58:00
9:58 PM,59.4,34.9,40,30.00,10.0,SE,9.2,-,N/A,,Overcast,140,2013-02-22 02:58:00
10:58 PM,60.6,37.0,42,29.98,10.0,SSE,9.2,-,N/A,,Overcast,150,2013-02-22 03:58:00
11:58 PM,61.0,39.6,45,29.98,10.0,South,6.9,-,N/A,,Mostly Cloudy,180,2013-02-22 04:58:00